EventNavy

Jakarta

175,051 Data

[122701]  female-788  02/14 06:02  17  0

[122702]  fancywoman 422  02/14 06:01  15  0

[122703]  chernogolovka-715  02/14 06:01  42  4

[122704]  saralelakarat 370  02/14 05:59  20  0

[122705]  casino cz_iepn  02/14 05:55  18  0

[122706]  Bobgenqwertnick  02/14 05:26  19  0

[122707]  medicinskoe oborydovanie_nmEa  02/14 05:22  18  0

[122708]  1win_ehSt  02/14 05:22  17  0

[122709]  mostbet_xcen  02/14 05:19  14  0

[122710]  domeo otzivi_dypi  02/14 05:13  15  0

[122711]  medicinskoe oborydovanie_srMr  02/14 05:07  18  0

[122712]  rabota v almati_qeMr  02/14 05:06  17  0

[122713]  mostbet_sjen  02/14 05:04  17  0

[122714]  rabota v almati_tdmn  02/14 05:02  17  0

[122715]  medicinskoe oborydovanie_huEa  02/14 05:00  10  0

[122716]  rabota v almati_eaEl  02/14 04:59  11  0

[122717]  casino cz_fapn  02/14 04:54  10  0

[122718]  1win_kqpl  02/14 04:52  10  0

[122719]  domeo otzivi_itpi  02/14 04:51  9  0

[122720]  medicinskoe oborydovanie_ofMr  02/14 04:46  9  0

[122721]  rabota v almati_emMr  02/14 04:43  11  0

[122722]  1win_fbpl  02/14 04:41  9  0

[122723]  rabota v almati_wcmn  02/14 04:38  10  0

[122724]  rabota v almati_ieEl  02/14 04:37  9  0

[122725]  casino cz_uzpn  02/14 04:30  12  0

[122726]  1win_lepl  02/14 04:23  11  0

[122727]  mostbet_yven  02/14 04:19  12  0

[122728]  http://www.mobile-mir.ru  02/14 04:10  12  0

[122729]  RonaldItelm  02/14 04:10  8  0

[122730]  mostbet_ujen  02/14 04:07  10  0

[122731]  электрокарнизы для штор цена и установка  02/14 04:07  9  0

[122732]  Charlesjam  02/14 04:05  12  0

[122733]  электрокарнизы для штор  02/14 04:04  8  0

[122734]  mostbet_lmen  02/14 04:02  8  0

[122735]  ruforums 523  02/14 04:00  11  0

[122736]  rusigra-480  02/14 04:00  8  0

[122737]  quebradadelospozos-354  02/14 03:59  10  0

[122738]  microbus 977  02/14 03:55  9  0

[122739]  http://mobile-mir.ru  02/14 03:52  10  0

[122740]  medicinskoe oborydovanie_qlEa  02/14 03:50  12  0

[122741]  1win_ozpl  02/14 03:49  8  0

[122742]  medicinskoe oborydovanie_fkMr  02/14 03:45  9  0

[122743]  domeo otzivi_arpi  02/14 03:41  11  0

[122744]  mostbet_zxpl  02/14 03:36  8  0

[122745]  rabota v almati_gnMr  02/14 03:34  14  0

[122746]  rabota v almati_zuEl  02/14 03:34  16  0

[122747]  rabota v almati_aemn  02/14 03:31  16  0

[122748]  mostbet_knen  02/14 03:18  17  0

[122749]  casino cz_ohpn  02/14 03:16  14  0

[122750]  1win_vdSt  02/14 03:15  14  0

[122751]  1win_zaSt  02/14 03:14  14  0

[122752]  1win_unSt  02/14 03:06  15  0

[122753]  tegedewacunc  02/14 02:57  16  0

[122754]  casino cz_jqpn  02/14 02:56  16  0

[122755]  casino cz_fuel  02/14 02:54  17  0

[122756]  1win_asSt  02/14 02:52  14  0

[122757]  1win_fwSt  02/14 02:51  14  0

[122758]  mostbet_xzen  02/14 02:45  15  0

[122759]  Stacymub  02/14 02:37  16  0

[122760]  Jorgerom  02/14 02:33  16  0

[122761]  1win_kbpl  02/14 02:15  15  0

[122762]  mostbet_lcen  02/14 02:11  18  0

[122763]  casino cz_tnpn  02/14 01:55  17  0

[122764]  casino cz_ecEi  02/14 01:51  19  0

[122765]  impactspreadsms 318  02/14 01:51  17  0

[122766]  casino cz_mcel  02/14 01:51  17  0

[122767]  fundacionlogros-967  02/14 01:50  15  0

[122768]  gormost-255  02/14 01:50  17  0

[122769]  clothes-outletstore 861  02/14 01:45  19  0

[122770]  fixchava  02/14 01:41  17  0

[122771]  1win_ulOt  02/14 01:40  18  0

[122772]  1win_nhpl  02/14 01:39  15  0

[122773]  1win_nkSt  02/14 01:35  16  0

[122774]  mostbet_scen  02/14 00:52  19  0

[122775]  1win_xrSt  02/14 00:51  15  0

[122776]  http://2teh.ru  02/14 00:36  19  0

[122777]  электрокарнизы в одинцово  02/14 00:32  18  0

[122778]  электрокарнизы купить в москве  02/14 00:29  15  0

[122779]  1win_cwSt  02/14 00:21  17  0

[122780]  электрокарниз купить в москве  02/14 00:18  18  0

[122781]  ecotech-energy 564  02/13 23:56  16  0

[122782]  comparecarinsurancerfgj-618  02/13 23:56  17  0

[122783]  shpik-304  02/13 23:53  17  0

[122784]  xiwet 179  02/13 23:50  15  0

[122785]  1win_xeSt  02/13 23:30  18  0

[122786]  1win_ntSt  02/13 23:28  15  0

[122787]  1win_fySt  02/13 23:06  16  0

[122788]  1win_zzSt  02/13 23:06  17  0

[122789]  1win_zeSt  02/13 23:00  17  0

[122790]  FredekStula  02/13 22:59  18  0

[122791]  KennethNique  02/13 22:53  18  0

[122792]  1win_ubSt  02/13 22:35  19  0

[122793]  Michaelnof  02/13 22:23  16  0

[122794]  рутор даркнет ссылки  02/13 22:21  17  0

[122795]  rutor теневой форум  02/13 22:17  17  0

[122796]  1win_buOt  02/13 22:16  15  0

[122797]  rutor форум  02/13 22:15  25  0

[122798]  рутор теневой форум  02/13 22:04  15  0

[122799]  Ernestonig  02/13 22:00  17  0

[122800]  1win_eiSt  02/13 21:59  17  0

Jakarta
Nama Tempat
Penjelasan